Location: Pensacola
(30.4142°N, 87.2155°W)
Time: 18:22:26
(UTC-05:00)

NANOSAT C BR1 - Pass Details

Date: 10 August 2024
Orbit: 544 x 550 km, 98.1° (Epoch: 12 September)

Event Time Altitude Azimuth Distance (km) Brightness Sun altitude
Rises 04:18:55 0° 26° (NNE) 2,749 ? -22.8°
Reaches altitude 10° 04:21:18 10° 38° (NE) 1,849 ? -22.4°
Maximum altitude 04:24:45 27° 98° (E) 1,077 ? -21.8°
Enters shadow 04:28:04 11° 157° (SSE) 1,804 ? -21.2°
